Location: Unspecified
(33.6682°S, 0.0000°E)
Time: 17:59:04
(UTC+00:00)

Vanguard 2 Rocket - Pass Details

Date: 24 June 2019
Orbit: 553 x 3327 km, 32.9° (Epoch: 18 October)

Event Time Altitude Azimuth Distance (km) Brightness Sun altitude
Rises 04:41:51 0° 340° (NNW) 7,249 11.4 -28.9°
Reaches altitude 10° 04:48:24 10° 352° (N) 6,273 11.2 -27.5°
Maximum altitude 05:02:22 24° 36° (NE) 4,802 11.0 -24.7°
Drops below altitude 10° 05:13:48 10° 82° (E) 5,146 11.8 -22.4°
Sets 05:18:18 0° 95° (E) 5,748 12.2 -21.5°
